Regional Weather Roundup
Issued by NWS

Home | Current Version | Previous Version | Graphics & Text | Print | Product List | Glossary On
Versions: 1 2 3 4 5 6 7 8 9 10 11 12 13 14 15 16 17 18 19 20 21 22 23 24 25 26 27 28 29 30 31 32 33 34 35 36 37 38 39 40 41 42 43 44 45 46 47 48 49 50
000
ASUS44 KMEG 221310
RWRTN
TENNESSEE HOURLY STATE WEATHER ROUNDUP
NATIONAL WEATHER SERVICE MEMPHIS TN
700 AM CST SAT NOV 22 2014

TNZ002-004-019-021-049-052-054-088>092-221400-
WEST TENNESSEE

CITY           SKY/WX    TMP DP  RH WIND       PRES   REMARKS
MEMPHIS INTL   MOCLDY    53  44  71 S7        30.27R
NWS MEMPHIS      N/A     50 N/A N/A MISG        N/A
JACKSON        CLOUDY    53  39  59 S8        30.29R
DYERSBURG      MOCLDY    52  36  54 S3        30.29R
UNION CITY     PTCLDY    48  41  76 S7        30.26R
PARIS          CLOUDY    48  39  71 S6        30.29R
HUNTINGDON     MOCLDY    50  37  60 S10       30.29S
LEXINGTON      MOCLDY    48  37  66 S5        30.30S
SAVANNAH       MOCLDY    48  36  61 SE6       30.32S
$$

TNZ008-025-027-028-033-062-065-066-221400-
NORTH MIDDLE TENNESSEE

CITY           SKY/WX    TMP DP  RH WIND       PRES   REMARKS
NASHVILLE      MOCLDY    47  32  56 SE6       30.35F
CLARKSVILLE    CLOUDY    50  36  58 S8        30.30F
SMYRNA         PTCLDY    37  32  82 S5        30.37S WCI  33
COOKEVILLE     CLEAR     45  28  53 S9        30.38R
CROSSVILLE     PTCLDY    42  23  46 S5        30.40R
$$

TNZ061-075-076-078-094-096-097-221400-
SOUTH MIDDLE TENNESSEE

CITY           SKY/WX    TMP DP  RH WIND       PRES   REMARKS
FAYETTEVILLE   CLEAR     39  27  60 N17G46    30.37S WCI  30
TULLAHOMA      CLEAR     45  25  45 SE9       30.38S
WINCHESTER     CLEAR     46  28  49 SE13      30.39R
MCMINNVILLE    CLEAR     46  30  53 CALM      30.38R
COLUMBIA       CLOUDY    46  34  61 CALM      30.33S
SHELBYVILLE    CLEAR     45  28  53 SE8       30.38S
$$

TNZ017-018-042-046-047-221400-
NORTHEAST TENNESSEE

CITY           SKY/WX    TMP DP  RH WIND       PRES   REMARKS
TRI CITIES     MOCLDY    24  18  77 CALM      30.45S
ELIZABETHTON   SUNNY     28  19  69 NE3       30.45S
$$

TNZ012-013-036-069-073-074-221400-
CENTRAL EAST TENNESSEE

CITY           SKY/WX    TMP DP  RH WIND       PRES   REMARKS
KNOXVILLE      MOCLDY    29  22  75 CALM      30.44S
OAK RIDGE      PTCLDY    28  24  85 CALM      30.47R
GATLINBURG     SUNNY     21  19  93 CALM      30.44S
MORRISTOWN     SUNNY     30  18  59 NE5       30.43S WCI  25
$$

TNZ083-085-099-221400-
SOUTHEAST TENNESSEE

CITY           SKY/WX    TMP DP  RH WIND       PRES   REMARKS
CHATTANOOGA    MOCLDY    32  28  85 CALM      30.45S
$$

SKY/WX REPORTED AS FAIR MEANS FEW OR NO CLOUDS BELOW
12 THOUSAND FEET.




USA.gov is the U.S. government's official web portal to all federal, state and local government web resources and services.